This demonstration page uses our WeatherBlox Daily Observations layout. Learn more.

Left ArrowRight Arrow

38.20091, -84.87328

Hourly Observations for July 14, 2021

Temp ( °F °C ) Dew Point ( °F °C ) Humidity (%) Winds ( mph kmh ) Pressure ( in mb ) Visibility ( mi km ) Precip ( " mm )
12:53 am 00:53 Partly Cloudy 71 21.7 68 20 90 90 S 5 7 30.17 1022 10 16 0.00 0.00
1:53 am 01:53 Mostly Cloudy 71 21.7 68 20 90 90 SSW 5 7 30.17 1022 10 16 0.00 0.00
2:53 am 02:53 Cloudy 71 21.7 69 20.6 94 94 SSW 6 9 30.16 1022 10 16 0.00 0.00
3:53 am 03:53 Mostly Cloudy 72 22.2 69 20.6 91 91 SSW 7 11 30.17 1022 10 16 0.00 0.00
4:53 am 04:53 Mostly Cloudy 71 21.7 69 20.6 94 94 SSW 8 13 30.17 1022 10 16 0.00 0.00
5:53 am 05:53 Partly Cloudy 70 21.1 68 20 93 93 SSW 3 6 30.18 1022 10 16 0.00 0.00
6:53 am 06:53 Cloudy 71 21.7 69 20.6 94 94 Calm 30.20 1023 10 16 0.00 0.00
7:53 am 07:53 Mostly Sunny 72 22.2 69 20.6 91 91 SW 6 9 30.20 1023 10 16 0.00 0.00
8:37 am 08:37 Mostly Cloudy 74 23.3 70 21.1 88 88 SW 6 9 30.20 1023 10 16 0.00 0.00
8:43 am 08:43 Cloudy 74 23.3 71 21.7 91 91 SW 6 9 30.20 1023 10 16 0.00 0.00
8:53 am 08:53 Cloudy 74 23.3 70 21.1 88 88 SSW 5 7 30.20 1023 10 16 0.00 0.00
9:49 am 09:49 Cloudy 75 24 72 22 89 89 SW 3 6 30.20 1023 10 16 0.00 0.00
9:53 am 09:53 Cloudy 75 23.9 71 21.7 88 88 SW 5 7 30.21 1023 10 16 0.00 0.00
10:40 am 10:40 Cloudy 76 24.4 71 21.7 85 85 SSW 7 11 30.21 1023 10 16 0.00 0.00
10:53 am 10:53 Mostly Cloudy 76 24.4 71 21.7 85 85 SW 6 9 30.22 1023 10 16 0.00 0.00
11:04 am 11:04 Mostly Cloudy 77 25 71 21.7 82 82 SSW 6 9 30.21 1023 10 16 0.00 0.00
11:12 am 11:12 Cloudy 77 25 71 21.7 82 82 SSW 6 9 30.22 1023 10 16 0.00 0.00
11:53 am 11:53 Mostly Cloudy 80 26.7 72 22.2 76 76 SSW 3 6 30.23 1024 10 16 0.00 0.00
12:15 pm 12:15 Mostly Cloudy 80 26.7 71 21.7 74 74 VRB 3 6 30.21 1023 10 16 0.00 0.00
12:53 pm 12:53 Mostly Cloudy 81 27.2 70 21.1 69 69 WNW 6 9 30.22 1023 10 16 0.00 0.00
1:53 pm 13:53 Mostly Cloudy 81 27.2 70 21.1 69 69 Calm 30.20 1023 10 16 0.00 0.00
2:53 pm 14:53 Partly Cloudy 83 28.3 70 21.1 65 65 SW 3 6 30.19 1022 10 16 0.00 0.00
3:53 pm 15:53 Mostly Cloudy 83 28.3 70 21.1 65 65 W 3 6 30.15 1021 10 16 0.00 0.00
4:53 pm 16:53 Partly Cloudy 85 29.4 70 21.1 61 61 WSW 7 11 30.15 1021 10 16 0.00 0.00
5:53 pm 17:53 Sunny 84 28.9 69 20.6 61 61 WSW 7 11 30.15 1021 10 16 0.00 0.00
6:53 pm 18:53 Sunny 84 28.9 70 21.1 63 63 SW 7 11 30.14 1021 10 16 0.00 0.00
7:53 pm 19:53 Sunny 81 27.2 70 21.1 69 69 SW 6 9 30.13 1020 10 16 0.00 0.00
8:53 pm 20:53 Sunny 78 25.6 71 21.7 79 79 SSW 3 6 30.13 1020 10 16 0.00 0.00
9:53 pm 21:53 Clear 74 23.3 70 21.1 88 88 Calm 30.13 1020 10 16 0.00 0.00
10:53 pm 22:53 Clear 74 23.3 70 21.1 88 88 S 5 7 30.15 1021 10 16 0.00 0.00
11:53 pm 23:53 Clear 74 23.3 70 21.1 88 88 SSW 5 7 30.14 1021 10 16 0.00 0.00

Powered by AerisWeather